Погода в Юшкозере

Россия / Республика Карелия     64°44′53″N   32°06′13″E
темп.,
°C
ветер,
м/с
пор.,
м/с
влажн.,
%
обл.,
%
осадки,
мм/ч
давл.,
гПа
погр.,
м
19 апреля, пн
пн1900:00+3юв268822 0.0 1034113
03:000ююв269312 0.0 103495
06:00−1ю24925 0.0 103468
09:00+6ю23745 0.0 1033265
12:00+9ююз33655 0.0 1032860
15:00+11ююз23595 0.0 10311106
18:00+10юз23635 0.0 1030971
21:00+6ю228399 0.0 103021
20 апреля, вт
вт2000:00+4ююз2487100 0.0 103076
03:00+3ююз2583100 0.0 103092
06:00+2ююз2583100 0.0 1029121
09:00+5ююз3464100 0.0 1029289
12:00+8ю354989 0.0 1027930
15:00+9ю45455 0.0 10251352
18:00+9ю35495 0.0 10221470
21:00+5ююв410705 0.0 1022314
21 апреля, ср
ср2100:00+2ююв397266 0.0 1021265
03:000ююв268184 0.0 1019123
06:000ююв267899 0.0 1017152
09:00+5юв3560100 0.0 1015374
12:00+8вюв3546100 0.0 10121033
15:00+8в4545100 0.0 10091211
18:00+7в4657100 0.0 1006622
21:00+4всв3770100 0.0 1004255
22 апреля, чт
чт2200:00+2вюв1399100 0.1 1002293
03:00+2в1299100 0.4 1001241
06:00+2всв1199100 0.3 1000236
09:00+2ююз1199100 0.7 1000195
12:00+2юз1298100 0.5 1000293
15:00+2юз2599100 1.0 1002273
18:00+2зюз3796100 0.3 1003510
21:00+2юз3788100 0.3 1004521
23 апреля, пт
пт2300:00+3ююз3792100 0.0 1005390
03:00+2юв1195100 0.0 100533
06:00+2в3897100 1.2 1003664
09:00+3ююз6148992 2.3 10041075
12:00+7ююз695876 0.1 10051707
15:00+8ююз685190 0.3 10061927
18:00+7ююз355598 0.2 10071376
21:00+4юв2487100 0.4 100891